SAS173 EKYT-ESMS

Flight info

Callsign SAS173
Flight time 0h 32m
Altitude 23000
Route AAL L621 ERNOV
Aircraft A320/M-SDE3FGHIRWY/LB1

Departure

Time 2026-05-04 20:51
Airport Aalborg Airport (EKYT)

Arrival

Time 2026-05-04 21:23
Airport Malmö Sturup Airport (ESMS)
Time Latitude Longitude Altitude Speed Heading
2026-05-04 20:44 57.08643 9.86962 26 ft 2 kts 324°
2026-05-04 20:44 57.08642 9.86963 25 ft 0 kts 323°
2026-05-04 20:46 57.08644 9.86960 26 ft 1 kts 323°
2026-05-04 20:46 57.08662 9.86931 19 ft 6 kts 313°
2026-05-04 20:46 57.08691 9.86849 19 ft 9 kts 302°
2026-05-04 20:46 57.08749 9.86730 19 ft 16 kts 319°
2026-05-04 20:47 57.08850 9.86579 19 ft 21 kts 322°
2026-05-04 20:47 57.08977 9.86397 19 ft 25 kts 323°
2026-05-04 20:47 57.09124 9.86186 19 ft 29 kts 321°
2026-05-04 20:47 57.09265 9.85989 19 ft 20 kts 323°
2026-05-04 20:48 57.09344 9.85970 21 ft 14 kts 48°
2026-05-04 20:48 57.09365 9.86190 19 ft 23 kts 84°
2026-05-04 20:48 57.09386 9.86518 19 ft 28 kts 83°
2026-05-04 20:48 57.09408 9.86895 19 ft 31 kts 83°
2026-05-04 20:49 57.09435 9.87315 19 ft 34 kts 83°
2026-05-04 20:49 57.09459 9.87645 21 ft 18 kts 71°
2026-05-04 20:49 57.09564 9.87751 19 ft 18 kts 351°
2026-05-04 20:49 57.09645 9.87632 19 ft 14 kts 302°
2026-05-04 20:50 57.09649 9.87550 19 ft 1 kts 259°
2026-05-04 20:50 57.09626 9.87243 19 ft 57 kts 263°
2026-05-04 20:50 57.09558 9.86146 21 ft 113 kts 263°
2026-05-04 20:50 57.09459 9.84466 153 ft 143 kts 264°
2026-05-04 20:51 57.09346 9.82618 697 ft 148 kts 265°
2026-05-04 20:51 57.09198 9.80723 1354 ft 152 kts 263°
2026-05-04 20:51 57.08856 9.78870 1961 ft 156 kts 248°
2026-05-04 20:51 57.08146 9.77256 2424 ft 172 kts 225°
2026-05-04 20:52 57.07001 9.76298 2909 ft 192 kts 198°
2026-05-04 20:52 57.05615 9.76382 3413 ft 211 kts 170°
2026-05-04 20:52 57.04249 9.77613 3865 ft 230 kts 148°
2026-05-04 20:52 57.03003 9.79724 4161 ft 259 kts 133°
2026-05-04 20:53 57.01901 9.82485 4563 ft 284 kts 124°
2026-05-04 20:53 57.00890 9.85651 5354 ft 290 kts 120°
2026-05-04 20:53 56.99930 9.88944 6218 ft 295 kts 119°
2026-05-04 20:53 56.98978 9.92308 7020 ft 300 kts 119°
2026-05-04 20:54 56.98014 9.95717 7831 ft 302 kts 119°
2026-05-04 20:54 56.97036 9.99152 8683 ft 305 kts 120°
2026-05-04 20:54 56.96041 10.02614 9496 ft 309 kts 120°
2026-05-04 20:54 56.95023 10.06114 10188 ft 316 kts 121°
2026-05-04 20:55 56.93944 10.09784 10411 ft 339 kts 121°
2026-05-04 20:55 56.92784 10.13706 10566 ft 362 kts 121°
2026-05-04 20:55 56.91547 10.17877 10692 ft 384 kts 121°
2026-05-04 20:55 56.90237 10.22279 10812 ft 403 kts 121°
2026-05-04 20:56 56.88871 10.26860 11149 ft 415 kts 121°
2026-05-04 20:56 56.87482 10.31524 11700 ft 420 kts 121°
2026-05-04 20:56 56.86079 10.36237 12277 ft 424 kts 121°
2026-05-04 20:56 56.84664 10.40999 12876 ft 429 kts 121°
2026-05-04 20:57 56.83231 10.45807 13489 ft 433 kts 121°
2026-05-04 20:57 56.81781 10.50650 14059 ft 437 kts 121°
2026-05-04 20:57 56.80313 10.55532 14596 ft 441 kts 121°
2026-05-04 20:57 56.78827 10.60454 15096 ft 445 kts 121°
2026-05-04 20:58 56.77323 10.65414 15597 ft 449 kts 121°
2026-05-04 20:58 56.75806 10.70412 16100 ft 452 kts 121°
2026-05-04 20:58 56.74282 10.75445 16576 ft 456 kts 121°
2026-05-04 20:58 56.72742 10.80522 17050 ft 460 kts 121°
2026-05-04 20:59 56.71189 10.85630 17520 ft 463 kts 121°
2026-05-04 20:59 56.69619 10.90777 17979 ft 467 kts 122°
2026-05-04 20:59 56.68056 10.95881 18407 ft 470 kts 122°
2026-05-04 20:59 56.66459 11.01087 18805 ft 473 kts 122°
2026-05-04 21:00 56.64853 11.06318 19226 ft 475 kts 122°
2026-05-04 21:00 56.63236 11.11577 19623 ft 478 kts 122°
2026-05-04 21:00 56.61610 11.16853 20016 ft 481 kts 122°
2026-05-04 21:00 56.59969 11.22156 20363 ft 483 kts 122°
2026-05-04 21:01 56.58319 11.27472 20764 ft 484 kts 122°
2026-05-04 21:01 56.56662 11.32801 21115 ft 486 kts 122°
2026-05-04 21:01 56.55000 11.38141 21438 ft 488 kts 122°
2026-05-04 21:01 56.53327 11.43508 21761 ft 490 kts 122°
2026-05-04 21:02 56.51647 11.48890 22069 ft 492 kts 122°
2026-05-04 21:02 56.49957 11.54295 22375 ft 494 kts 122°
2026-05-04 21:02 56.48260 11.59709 22667 ft 496 kts 122°
2026-05-04 21:02 56.46552 11.65135 22883 ft 497 kts 122°
2026-05-04 21:03 56.44826 11.70597 22923 ft 502 kts 122°
2026-05-04 21:03 56.43090 11.76080 22913 ft 503 kts 122°
2026-05-04 21:03 56.42315 11.78524 22918 ft 506 kts 122°
2026-05-04 21:04 56.41267 11.81826 22912 ft 510 kts 122°
2026-05-04 21:04 56.40559 11.84051 22910 ft 511 kts 122°
2026-05-04 21:04 56.38786 11.89620 22918 ft 512 kts 122°
2026-05-04 21:05 56.37014 11.95188 22919 ft 512 kts 122°
2026-05-04 21:05 56.35246 12.00734 22538 ft 507 kts 122°
2026-05-04 21:05 56.33492 12.06214 22054 ft 500 kts 122°
2026-05-04 21:05 56.31804 12.11472 21619 ft 484 kts 123°
2026-05-04 21:06 56.30141 12.16642 21195 ft 471 kts 123°
2026-05-04 21:06 56.28508 12.21703 20781 ft 465 kts 123°
2026-05-04 21:06 56.26889 12.26704 20378 ft 461 kts 123°
2026-05-04 21:06 56.25279 12.31674 19984 ft 458 kts 123°
2026-05-04 21:07 56.23678 12.36614 19583 ft 456 kts 123°
2026-05-04 21:07 56.22085 12.41519 19201 ft 453 kts 123°
2026-05-04 21:07 56.20496 12.46391 18784 ft 450 kts 123°
2026-05-04 21:07 56.18913 12.51217 18401 ft 447 kts 123°
2026-05-04 21:08 56.17789 12.54637 18122 ft 445 kts 124°
2026-05-04 21:08 56.16225 12.59311 17694 ft 442 kts 125°
2026-05-04 21:08 56.14568 12.63934 17251 ft 439 kts 127°
2026-05-04 21:09 56.12864 12.68439 16837 ft 435 kts 128°
2026-05-04 21:09 56.11139 12.72880 16416 ft 432 kts 129°
2026-05-04 21:09 56.09420 12.77276 16007 ft 430 kts 129°
2026-05-04 21:09 56.07718 12.81650 15603 ft 427 kts 128°
2026-05-04 21:10 56.06035 12.86008 15202 ft 425 kts 128°
2026-05-04 21:10 56.04368 12.90358 14809 ft 422 kts 128°
2026-05-04 21:10 56.02740 12.94627 14416 ft 420 kts 128°
2026-05-04 21:10 56.01103 12.98920 14042 ft 417 kts 128°
2026-05-04 21:11 55.99472 13.03189 13644 ft 415 kts 128°
2026-05-04 21:11 55.97846 13.07430 13216 ft 412 kts 128°
2026-05-04 21:11 55.96212 13.11609 12794 ft 408 kts 131°
2026-05-04 21:11 55.94274 13.15214 12391 ft 399 kts 144°
2026-05-04 21:12 55.92008 13.17947 11980 ft 390 kts 157°
2026-05-04 21:12 55.89535 13.19768 11571 ft 381 kts 168°
2026-05-04 21:12 55.86969 13.20670 11169 ft 372 kts 180°
2026-05-04 21:12 55.84400 13.20984 10747 ft 369 kts 181°
2026-05-04 21:13 55.81850 13.21289 10348 ft 366 kts 181°
2026-05-04 21:13 55.80138 13.21497 10085 ft 364 kts 181°
2026-05-04 21:13 55.78639 13.21680 9866 ft 363 kts 181°
2026-05-04 21:13 55.77840 13.21778 9735 ft 362 kts 181°
2026-05-04 21:14 55.75331 13.22086 9310 ft 360 kts 181°
2026-05-04 21:14 55.72836 13.22391 8883 ft 359 kts 181°
2026-05-04 21:14 55.70367 13.22691 8464 ft 351 kts 181°
2026-05-04 21:14 55.67965 13.22987 8140 ft 341 kts 181°
2026-05-04 21:15 55.65634 13.23271 7824 ft 331 kts 181°
2026-05-04 21:15 55.63370 13.23545 7523 ft 322 kts 181°
2026-05-04 21:15 55.61157 13.23812 7224 ft 315 kts 181°
2026-05-04 21:15 55.58995 13.24067 6927 ft 309 kts 181°
2026-05-04 21:16 55.56872 13.24271 6626 ft 303 kts 182°
2026-05-04 21:16 55.54789 13.24413 6379 ft 296 kts 183°
2026-05-04 21:16 55.52791 13.24533 6120 ft 279 kts 183°
2026-05-04 21:16 55.50900 13.24643 5834 ft 265 kts 184°
2026-05-04 21:17 55.49098 13.24752 5548 ft 253 kts 184°
2026-05-04 21:17 55.47361 13.24861 5176 ft 248 kts 184°
2026-05-04 21:17 55.45622 13.24969 4802 ft 252 kts 183°
2026-05-04 21:17 55.43882 13.25077 4411 ft 247 kts 183°
2026-05-04 21:18 55.42196 13.25349 4021 ft 243 kts 167°
2026-05-04 21:18 55.40741 13.26835 3640 ft 247 kts 135°
2026-05-04 21:18 55.39730 13.29306 3274 ft 253 kts 114°
2026-05-04 21:18 55.39336 13.32299 2990 ft 252 kts 94°
2026-05-04 21:19 55.39242 13.35354 2703 ft 249 kts 90°
2026-05-04 21:19 55.39460 13.38309 2535 ft 239 kts 65°
2026-05-04 21:19 55.40408 13.40519 2501 ft 221 kts 27°
2026-05-04 21:19 55.41789 13.41090 2386 ft 197 kts 343°
2026-05-04 21:20 55.42973 13.40107 2139 ft 186 kts 326°
2026-05-04 21:20 55.44200 13.39514 1896 ft 181 kts 352°
2026-05-04 21:20 55.45400 13.39336 1668 ft 167 kts 347°
2026-05-04 21:20 55.46510 13.39096 1467 ft 152 kts 347°
2026-05-04 21:21 55.47528 13.38882 1248 ft 145 kts 347°
2026-05-04 21:21 55.48517 13.38673 1058 ft 140 kts 348°
2026-05-04 21:21 55.49473 13.38471 887 ft 137 kts 349°
2026-05-04 21:21 55.50417 13.38282 677 ft 140 kts 349°
2026-05-04 21:22 55.51384 13.38104 487 ft 140 kts 348°
2026-05-04 21:22 55.52341 13.37884 284 ft 136 kts 349°
2026-05-04 21:22 55.53189 13.37703 240 ft 102 kts 353°
2026-05-04 21:22 55.53724 13.37601 239 ft 53 kts 354°
2026-05-04 21:23 55.54033 13.37538 242 ft 42 kts 354°
2026-05-04 21:23 55.54219 13.37476 239 ft 12 kts 297°
2026-05-04 21:23 55.54213 13.37269 232 ft 21 kts 261°
2026-05-04 21:23 55.54183 13.37016 231 ft 17 kts 258°
2026-05-04 21:24 55.54111 13.36943 232 ft 0 kts 174°
2026-05-04 21:24 57.08678 9.87021 232 ft 14 kts 55°